Location: Franzen
(48.6167°N, 15.3833°E)
Time: 12:27:25
(UTC+00:00)

SL-4 R/B - Pass Details

Date: 22 April 2021
Orbit: 427 x 663 km, 51.6° (Epoch: 16 May)

Event Time Altitude Azimuth Distance (km) Brightness Sun altitude
Rises 23:05:38 0° 285° (WNW) 2,914 5.9 -28.8°
Reaches altitude 10° 23:07:55 10° 288° (WNW) 2,033 5.0 -28.8°
Enters shadow 23:09:12 19° 291° (WNW) 1,558 4.4 -28.8°
